Torna al catalogo

FORMOSAT 3C

AttivoMeteoLEO
NORAD 29049·PAYLOAD·🇹🇼 Taiwan

Lanciato Apr 15, 2006 da Vandenberg Space Force Base

Loading…

Prossimi Passaggi (prossime 24 ore)

TLE

AggiornatoSource: Space-Track

Epoca: Sep 14, 2026, 14:20 UTC

1 29049U 06011C   26257.59751390  .00000280  00000-0  12019-3 0  9999
2 29049  72.0172 221.0014 0032280  49.4038 310.9901 14.31459004 65463

Traccia FORMOSAT 3C in tempo reale con AllMySat

Download on the App Store